| time (UTC) | temp F | wind direction | speed MPH | gust MPH | rain 1hr in | rain 24hr in | rain mn in | humidity % | barometer mb |
| 20260506182517 | 66 | 251 | 7.0 | 11.0 | 0.00 | 0.00 | 0.06 | 78 | 1008.5 |
| 20260506182019 | 66 | 250 | 5.0 | 9.0 | 0.00 | 0.00 | 0.06 | 79 | 1008.5 |
| 20260506181517 | 66 | 239 | 5.0 | 9.0 | 0.00 | 0.00 | 0.06 | 78 | 1008.5 |
| 20260506181017 | 66 | 243 | 5.0 | 11.0 | 0.00 | 0.00 | 0.06 | 77 | 1008.6 |
| 20260506180517 | 66 | 264 | 9.0 | 12.0 | 0.00 | 0.00 | 0.06 | 76 | 1008.5 |
| 20260506180018 | 66 | 242 | 4.0 | 6.0 | 0.00 | 0.00 | 0.06 | 76 | 1008.6 |
| 20260506175517 | 66 | 253 | 6.0 | 12.0 | 0.01 | 0.00 | 0.06 | 75 | 1008.5 |
| 20260506175018 | 66 | 254 | 4.0 | 10.0 | 0.01 | 0.00 | 0.06 | 76 | 1008.6 |
| 20260506174517 | 66 | 233 | 7.0 | 14.0 | 0.01 | 0.00 | 0.06 | 76 | 1008.6 |
| 20260506174017 | 66 | 242 | 5.0 | 11.0 | 0.02 | 0.00 | 0.06 | 76 | 1008.6 |
| 20260506173518 | 66 | 237 | 5.0 | 8.0 | 0.02 | 0.00 | 0.06 | 77 | 1008.7 |
| 20260506173018 | 66 | 246 | 4.0 | 9.0 | 0.03 | 0.00 | 0.06 | 77 | 1008.8 |
| 20260506172517 | 66 | 236 | 2.0 | 6.0 | 0.03 | 0.00 | 0.07 | 77 | 1008.8 |
| 20260506172017 | 66 | 244 | 4.0 | 9.0 | 0.04 | 0.00 | 0.07 | 77 | 1008.9 |
| 20260506171517 | 66 | 241 | 4.0 | 7.0 | 0.04 | 0.00 | 0.07 | 77 | 1008.9 |
| 20260506171018 | 66 | 244 | 8.0 | 14.0 | 0.04 | 0.00 | 0.07 | 77 | 1008.9 |
| 20260506170518 | 67 | 244 | 5.0 | 9.0 | 0.05 | 0.00 | 0.07 | 77 | 1008.7 |
| 20260506170017 | 67 | 228 | 4.0 | 10.0 | 0.05 | 0.00 | 0.07 | 77 | 1008.9 |
| 20260506165518 | 67 | 236 | 4.0 | 6.0 | 0.04 | 0.00 | 0.07 | 77 | 1008.8 |
| 20260506165017 | 67 | 243 | 4.0 | 7.0 | 0.04 | 0.00 | 0.06 | 78 | 1009.0 |
| 20260506164517 | 67 | 248 | 4.0 | 10.0 | 0.04 | 0.00 | 0.06 | 79 | 1008.9 |
| 20260506164017 | 67 | 249 | 6.0 | 11.0 | 0.03 | 0.00 | 0.06 | 78 | 1009.0 |
| 20260506163517 | 67 | 231 | 3.0 | 7.0 | 0.04 | 0.00 | 0.06 | 79 | 1009.0 |
| 20260506163018 | 66 | 250 | 3.0 | 7.0 | 0.04 | 0.00 | 0.05 | 78 | 1009.2 |
| 20260506162518 | 66 | 239 | 5.0 | 12.0 | 0.04 | 0.00 | 0.06 | 77 | 1009.4 |
| 20260506162018 | 66 | 251 | 3.0 | 6.0 | 0.03 | 0.00 | 0.06 | 78 | 1009.5 |
| 20260506161518 | 67 | 255 | 6.0 | 9.0 | 0.03 | 0.00 | 0.05 | 76 | 1009.8 |
| 20260506161017 | 67 | 250 | 4.0 | 8.0 | 0.03 | 0.00 | 0.04 | 75 | 1010.0 |
| 20260506160517 | 67 | 255 | 5.0 | 8.0 | 0.03 | 0.00 | 0.03 | 75 | 1010.1 |
| 20260506160018 | 67 | 277 | 2.0 | 6.0 | 0.02 | 0.00 | 0.03 | 74 | 1010.1 |
| 20260506155517 | 67 | 235 | 3.0 | 4.0 | 0.02 | 0.00 | 0.03 | 73 | 1010.2 |
| 20260506155021 | 67 | 256 | 4.0 | 6.0 | 0.02 | 0.00 | 0.03 | 72 | 1010.1 |
| 20260506154517 | 67 | 276 | 3.0 | 6.0 | 0.01 | 0.00 | 0.02 | 73 | 1010.3 |
| 20260506154019 | 67 | 255 | 5.0 | 9.0 | 0.01 | 0.00 | 0.02 | 72 | 1010.2 |
| 20260506153518 | 68 | 255 | 6.0 | 15.0 | 0.01 | 0.00 | 0.02 | 70 | 1010.2 |
| 20260506153017 | 68 | 236 | 4.0 | 10.0 | 0.01 | 0.00 | 0.01 | 70 | 1010.2 |
| 20260506152518 | 68 | 249 | 7.0 | 12.0 | 0.01 | 0.00 | 0.01 | 68 | 1010.1 |
| 20260506152018 | 69 | 263 | 4.0 | 7.0 | 0.00 | 0.00 | 0.01 | 67 | 1010.0 |
| 20260506151517 | 69 | 311 | 8.0 | 14.0 | 0.00 | 0.00 | 0.01 | 65 | 1010.0 |
| 20260506151017 | 69 | 254 | 6.0 | 11.0 | 0.00 | 0.00 | 0.01 | 64 | 1010.1 |
| 20260506150517 | 70 | 211 | 6.0 | 13.0 | 0.00 | 0.00 | 0.00 | 64 | 1009.9 |
| 20260506150019 | 70 | 254 | 7.0 | 10.0 | 0.00 | 0.00 | 0.00 | 64 | 1009.8 |
| 20260506145518 | 70 | 249 | 6.0 | 13.0 | 0.00 | 0.00 | 0.00 | 64 | 1009.9 |
| 20260506145018 | 70 | 238 | 4.0 | 11.0 | 0.00 | 0.00 | 0.00 | 63 | 1009.9 |
| 20260506144519 | 70 | 241 | 4.0 | 8.0 | 0.00 | 0.00 | 0.00 | 64 | 1010.1 |
| 20260506144017 | 70 | 236 | 4.0 | 7.0 | 0.00 | 0.00 | 0.00 | 63 | 1010.1 |
| 20260506143517 | 70 | 255 | 4.0 | 8.0 | 0.00 | 0.00 | 0.00 | 63 | 1010.1 |
| 20260506143018 | 70 | 256 | 6.0 | 11.0 | 0.00 | 0.00 | 0.00 | 62 | 1010.1 |
| 20260506142519 | 70 | 255 | 8.0 | 11.0 | 0.00 | 0.00 | 0.00 | 62 | 1010.1 |
| 20260506142019 | 70 | 243 | 5.0 | 9.0 | 0.00 | 0.00 | 0.00 | 61 | 1010.0 |
| 20260506141518 | 70 | 223 | 2.0 | 6.0 | 0.00 | 0.00 | 0.00 | 61 | 1010.1 |
| 20260506141017 | 70 | 246 | 6.0 | 13.0 | 0.00 | 0.00 | 0.00 | 61 | 1010.0 |
| 20260506140517 | 70 | 256 | 7.0 | 17.0 | 0.00 | 0.00 | 0.00 | 61 | 1010.0 |
| 20260506140018 | 70 | 241 | 6.0 | 10.0 | 0.00 | 0.00 | 0.00 | 61 | 1010.0 |
| 20260506135517 | 70 | 233 | 7.0 | 12.0 | 0.00 | 0.00 | 0.00 | 61 | 1010.0 |
| 20260506135017 | 70 | 243 | 5.0 | 11.0 | 0.00 | 0.00 | 0.00 | 62 | 1009.9 |
| 20260506134520 | 69 | 239 | 4.0 | 8.0 | 0.00 | 0.00 | 0.00 | 63 | 1009.8 |
| 20260506134018 | 69 | 250 | 6.0 | 12.0 | 0.00 | 0.00 | 0.00 | 64 | 1009.9 |
| 20260506133518 | 69 | 233 | 5.0 | 10.0 | 0.00 | 0.00 | 0.00 | 64 | 1009.9 |
| 20260506133019 | 69 | 247 | 6.0 | 11.0 | 0.00 | 0.00 | 0.00 | 64 | 1009.9 |
| 20260506132518 | 69 | 255 | 5.0 | 12.0 | 0.00 | 0.00 | 0.00 | 64 | 1009.9 |
| 20260506132018 | 69 | 252 | 4.0 | 8.0 | 0.00 | 0.00 | 0.00 | 64 | 1009.9 |
| 20260506131518 | 69 | 246 | 6.0 | 11.0 | 0.00 | 0.00 | 0.00 | 65 | 1010.0 |
| 20260506131017 | 69 | 245 | 8.0 | 13.0 | 0.00 | 0.00 | 0.00 | 65 | 1010.2 |
| 20260506130517 | 69 | 251 | 6.0 | 13.0 | 0.00 | 0.00 | 0.00 | 65 | 1010.2 |
| 20260506130017 | 69 | 244 | 6.0 | 8.0 | 0.00 | 0.00 | 0.00 | 65 | 1010.3 |
| 20260506125517 | 69 | 229 | 4.0 | 6.0 | 0.00 | 0.00 | 0.00 | 65 | 1010.3 |
| 20260506125017 | 69 | 225 | 5.0 | 12.0 | 0.00 | 0.00 | 0.00 | 65 | 1010.1 |
| 20260506124517 | 69 | 244 | 8.0 | 15.0 | 0.00 | 0.00 | 0.00 | 65 | 1010.0 |
| 20260506124017 | 68 | 244 | 3.0 | 6.0 | 0.00 | 0.00 | 0.00 | 66 | 1010.1 |
| 20260506123518 | 68 | 241 | 6.0 | 9.0 | 0.00 | 0.00 | 0.00 | 67 | 1010.1 |
| 20260506123017 | 68 | 261 | 6.0 | 9.0 | 0.00 | 0.00 | 0.00 | 67 | 1010.1 |
| 20260506122517 | 68 | 218 | 5.0 | 9.0 | 0.00 | 0.00 | 0.00 | 68 | 1010.1 |
| 20260506122018 | 67 | 239 | 6.0 | 10.0 | 0.00 | 0.00 | 0.00 | 67 | 1010.1 |
| 20260506121518 | 67 | 225 | 5.0 | 9.0 | 0.00 | 0.00 | 0.00 | 69 | 1009.9 |
| 20260506121022 | 67 | 246 | 3.0 | 10.0 | 0.00 | 0.00 | 0.00 | 69 | 1010.1 |
| 20260506120520 | 67 | 238 | 6.0 | 9.0 | 0.00 | 0.00 | 0.00 | 69 | 1010.2 |
| 20260506120017 | 66 | 216 | 4.0 | 9.0 | 0.00 | 0.00 | 0.00 | 70 | 1010.1 |
| 20260506115519 | 66 | 212 | 3.0 | 6.0 | 0.00 | 0.00 | 0.00 | 71 | 1010.1 |
| 20260506115018 | 66 | 240 | 5.0 | 9.0 | 0.00 | 0.00 | 0.00 | 72 | 1010.1 |
| 20260506114517 | 66 | 230 | 6.0 | 11.0 | 0.00 | 0.00 | 0.00 | 71 | 1010.2 |
| 20260506114017 | 66 | 245 | 9.0 | 12.0 | 0.00 | 0.00 | 0.00 | 71 | 1010.1 |
| 20260506113518 | 65 | 246 | 8.0 | 16.0 | 0.00 | 0.00 | 0.00 | 72 | 1010.1 |
| 20260506113017 | 65 | 225 | 4.0 | 9.0 | 0.00 | 0.00 | 0.00 | 72 | 1010.1 |
| 20260506112518 | 65 | 250 | 4.0 | 8.0 | 0.00 | 0.00 | 0.00 | 72 | 1010.1 |
| 20260506112019 | 65 | 224 | 3.0 | 6.0 | 0.00 | 0.00 | 0.00 | 72 | 1010.1 |
| 20260506111518 | 65 | 211 | 4.0 | 7.0 | 0.00 | 0.00 | 0.00 | 72 | 1010.1 |
| 20260506111018 | 65 | 234 | 2.0 | 5.0 | 0.00 | 0.00 | 0.00 | 72 | 1010.1 |
| 20260506110519 | 65 | 248 | 5.0 | 11.0 | 0.00 | 0.00 | 0.00 | 73 | 1010.2 |
| 20260506110017 | 65 | 240 | 4.0 | 10.0 | 0.00 | 0.00 | 0.00 | 73 | 1010.1 |
| 20260506105518 | 65 | 212 | 5.0 | 11.0 | 0.00 | 0.00 | 0.00 | 73 | 1010.1 |
| 20260506105017 | 65 | 251 | 4.0 | 11.0 | 0.00 | 0.00 | 0.00 | 74 | 1010.1 |
| 20260506104518 | 65 | 216 | 2.0 | 6.0 | 0.00 | 0.00 | 0.00 | 74 | 1010.1 |
| 20260506104021 | 65 | 216 | 4.0 | 7.0 | 0.00 | 0.00 | 0.00 | 74 | 1010.1 |
| 20260506103517 | 65 | 232 | 3.0 | 6.0 | 0.00 | 0.00 | 0.00 | 75 | 1010.2 |
| 20260506103017 | 65 | 221 | 4.0 | 6.0 | 0.00 | 0.00 | 0.00 | 75 | 1010.1 |
| 20260506102518 | 65 | 224 | 6.0 | 10.0 | 0.00 | 0.00 | 0.00 | 75 | 1010.1 |
| 20260506102017 | 65 | 226 | 4.0 | 7.0 | 0.00 | 0.00 | 0.00 | 75 | 1010.0 |
| 20260506101519 | 65 | 219 | 4.0 | 8.0 | 0.00 | 0.00 | 0.00 | 75 | 1010.1 |
| 20260506101018 | 65 | 216 | 4.0 | 8.0 | 0.00 | 0.00 | 0.00 | 75 | 1010.2 |
| 20260506100517 | 65 | 217 | 5.0 | 7.0 | 0.00 | 0.00 | 0.00 | 75 | 1010.2 |
| 20260506100017 | 65 | 238 | 3.0 | 6.0 | 0.00 | 0.00 | 0.00 | 75 | 1010.2 |
| 20260506095517 | 65 | 216 | 3.0 | 6.0 | 0.00 | 0.00 | 0.00 | 75 | 1010.2 |
| 20260506095018 | 65 | 215 | 2.0 | 6.0 | 0.00 | 0.00 | 0.00 | 75 | 1010.2 |
| 20260506094519 | 65 | 204 | 3.0 | 5.0 | 0.00 | 0.00 | 0.00 | 75 | 1010.1 |
| 20260506094017 | 65 | 261 | 4.0 | 8.0 | 0.00 | 0.00 | 0.00 | 75 | 1010.0 |
| 20260506093518 | 65 | 209 | 4.0 | 11.0 | 0.00 | 0.00 | 0.00 | 75 | 1010.0 |
| 20260506093018 | 65 | 258 | 5.0 | 10.0 | 0.00 | 0.00 | 0.00 | 75 | 1010.0 |
| 20260506092518 | 65 | 233 | 4.0 | 8.0 | 0.00 | 0.00 | 0.00 | 75 | 1010.0 |
| 20260506092017 | 65 | 230 | 3.0 | 5.0 | 0.00 | 0.00 | 0.00 | 75 | 1010.0 |
| 20260506091518 | 65 | 226 | 3.0 | 5.0 | 0.00 | 0.00 | 0.00 | 75 | 1010.0 |
| 20260506091017 | 65 | 224 | 3.0 | 6.0 | 0.00 | 0.00 | 0.00 | 75 | 1010.1 |
| 20260506090517 | 65 | 225 | 4.0 | 8.0 | 0.00 | 0.00 | 0.00 | 75 | 1010.1 |
| 20260506090017 | 65 | 239 | 3.0 | 6.0 | 0.00 | 0.00 | 0.00 | 75 | 1010.1 |
| 20260506085518 | 65 | 236 | 4.0 | 7.0 | 0.00 | 0.00 | 0.00 | 75 | 1010.2 |
| 20260506085017 | 65 | 241 | 3.0 | 5.0 | 0.00 | 0.00 | 0.00 | 75 | 1010.2 |
| 20260506084519 | 65 | 211 | 5.0 | 7.0 | 0.00 | 0.00 | 0.00 | 75 | 1010.2 |
| 20260506084017 | 66 | 210 | 3.0 | 8.0 | 0.00 | 0.00 | 0.00 | 75 | 1010.2 |
| 20260506083517 | 66 | 195 | 3.0 | 8.0 | 0.00 | 0.00 | 0.00 | 75 | 1010.2 |
| 20260506082534 | 66 | 218 | 5.0 | 8.0 | 0.00 | 0.00 | 0.00 | 75 | 1010.2 |
| 20260506082017 | 66 | 217 | 5.0 | 10.0 | 0.00 | 0.00 | 0.00 | 74 | 1010.3 |
| 20260506081517 | 66 | 235 | 4.0 | 9.0 | 0.00 | 0.00 | 0.00 | 74 | 1010.4 |
| 20260506081017 | 66 | 227 | 3.0 | 6.0 | 0.00 | 0.00 | 0.00 | 74 | 1010.3 |
| 20260506080518 | 66 | 228 | 4.0 | 8.0 | 0.00 | 0.00 | 0.00 | 74 | 1010.3 |
| 20260506073522 | 67 | 215 | 4.0 | 10.0 | 0.00 | 0.00 | 0.00 | 73 | 1010.3 |
| 20260506073017 | 67 | 231 | 3.0 | 7.0 | 0.00 | 0.00 | 0.00 | 73 | 1010.3 |
| 20260506072517 | 67 | 218 | 4.0 | 8.0 | 0.00 | 0.00 | 0.00 | 73 | 1010.3 |
| 20260506072018 | 67 | 229 | 4.0 | 7.0 | 0.00 | 0.00 | 0.00 | 73 | 1010.3 |
| 20260506071518 | 67 | 226 | 3.0 | 6.0 | 0.00 | 0.00 | 0.00 | 73 | 1010.3 |
| 20260506071017 | 67 | 222 | 4.0 | 8.0 | 0.00 | 0.00 | 0.00 | 73 | 1010.4 |
| 20260506070518 | 67 | 223 | 4.0 | 9.0 | 0.00 | 0.00 | 0.00 | 73 | 1010.4 |
| 20260506062517 | 68 | 224 | 4.0 | 10.0 | 0.00 | 0.00 | 0.00 | 70 | 1010.5 |
| 20260506062018 | 68 | 233 | 3.0 | 6.0 | 0.00 | 0.00 | 0.00 | 70 | 1010.6 |
| 20260506061517 | 68 | 217 | 2.0 | 4.0 | 0.00 | 0.00 | 0.00 | 70 | 1010.6 |
| 20260506061017 | 68 | 247 | 3.0 | 7.0 | 0.00 | 0.00 | 0.00 | 70 | 1010.6 |
| 20260506060518 | 68 | 255 | 4.0 | 8.0 | 0.00 | 0.00 | 0.00 | 70 | 1010.6 |
| 20260506051017 | 69 | 240 | 4.0 | 8.0 | 0.00 | 0.00 | 0.00 | 68 | 1011.0 |
| 20260506050518 | 69 | 246 | 4.0 | 9.0 | 0.00 | 0.00 | 0.00 | 68 | 1011.0 |
| 20260506045018 | 69 | 239 | 3.0 | 8.0 | 0.00 | 0.00 | 0.00 | 67 | 1011.1 |
| 20260506044518 | 69 | 235 | 4.0 | 9.0 | 0.00 | 0.00 | 0.00 | 66 | 1011.1 |
| 20260506044018 | 69 | 243 | 3.0 | 6.0 | 0.00 | 0.00 | 0.00 | 66 | 1011.1 |
| 20260506043519 | 69 | 249 | 3.0 | 5.0 | 0.00 | 0.00 | 0.00 | 66 | 1011.1 |
| 20260506043017 | 69 | 225 | 4.0 | 7.0 | 0.00 | 0.00 | 0.00 | 65 | 1011.1 |
| 20260506042517 | 69 | 251 | 6.0 | 11.0 | 0.00 | 0.00 | 0.00 | 65 | 1011.1 |
| 20260506042020 | 69 | 220 | 5.0 | 10.0 | 0.00 | 0.00 | 0.00 | 65 | 1011.1 |
| 20260506041517 | 69 | 238 | 4.0 | 8.0 | 0.00 | 0.00 | 0.00 | 65 | 1011.1 |
| 20260506041017 | 69 | 230 | 4.0 | 6.0 | 0.00 | 0.00 | 0.00 | 64 | 1011.1 |
| 20260506040517 | 70 | 241 | 6.0 | 10.0 | 0.00 | 0.00 | 0.00 | 64 | 1011.0 |
| 20260506040018 | 70 | 249 | 5.0 | 11.0 | 0.00 | 0.00 | 0.00 | 64 | 1011.0 |
| 20260506035517 | 70 | 233 | 2.0 | 5.0 | 0.00 | 0.00 | 0.00 | 63 | 1011.0 |
| 20260506035017 | 70 | 236 | 3.0 | 6.0 | 0.00 | 0.00 | 0.00 | 63 | 1011.0 |
| 20260506034518 | 70 | 249 | 5.0 | 9.0 | 0.00 | 0.00 | 0.00 | 63 | 1010.9 |
| 20260506034018 | 70 | 228 | 4.0 | 7.0 | 0.00 | 0.00 | 0.00 | 63 | 1010.9 |
| 20260506033517 | 70 | 228 | 4.0 | 9.0 | 0.00 | 0.00 | 0.00 | 62 | 1010.8 |
| 20260506033017 | 70 | 232 | 4.0 | 11.0 | 0.00 | 0.00 | 0.00 | 62 | 1010.9 |
| 20260506032517 | 70 | 216 | 4.0 | 8.0 | 0.00 | 0.00 | 0.00 | 62 | 1010.9 |
| 20260506032019 | 70 | 219 | 4.0 | 8.0 | 0.00 | 0.00 | 0.00 | 62 | 1011.0 |
| 20260506031517 | 71 | 227 | 2.0 | 3.0 | 0.00 | 0.00 | 0.00 | 61 | 1010.9 |
| 20260506031017 | 71 | 218 | 3.0 | 6.0 | 0.00 | 0.00 | 0.00 | 61 | 1011.0 |
| 20260506030517 | 71 | 248 | 7.0 | 9.0 | 0.00 | 0.00 | 0.00 | 60 | 1011.0 |
| 20260506030018 | 71 | 217 | 3.0 | 6.0 | 0.00 | 0.00 | 0.00 | 60 | 1011.0 |
| 20260506025517 | 71 | 245 | 3.0 | 6.0 | 0.00 | 0.00 | 0.00 | 60 | 1011.1 |
| 20260506025018 | 71 | 226 | 4.0 | 7.0 | 0.00 | 0.00 | 0.00 | 59 | 1011.0 |
| 20260506024517 | 71 | 237 | 3.0 | 8.0 | 0.00 | 0.00 | 0.00 | 59 | 1011.0 |
| 20260506024017 | 71 | 224 | 5.0 | 10.0 | 0.00 | 0.00 | 0.00 | 59 | 1011.0 |
| 20260506023517 | 71 | 226 | 3.0 | 6.0 | 0.00 | 0.00 | 0.00 | 59 | 1011.1 |
| 20260506023017 | 71 | 217 | 4.0 | 10.0 | 0.00 | 0.00 | 0.00 | 58 | 1011.1 |
| 20260506022517 | 71 | 222 | 4.0 | 6.0 | 0.00 | 0.00 | 0.00 | 58 | 1011.0 |
| 20260506022017 | 71 | 228 | 2.0 | 5.0 | 0.00 | 0.00 | 0.00 | 57 | 1011.1 |
| 20260506021517 | 71 | 253 | 3.0 | 5.0 | 0.00 | 0.00 | 0.00 | 57 | 1011.1 |
| 20260506021018 | 71 | 225 | 5.0 | 9.0 | 0.00 | 0.00 | 0.00 | 58 | 1011.0 |
| 20260506020517 | 71 | 230 | 2.0 | 4.0 | 0.00 | 0.00 | 0.00 | 58 | 1011.0 |
| 20260506020018 | 71 | 243 | 4.0 | 6.0 | 0.00 | 0.00 | 0.00 | 58 | 1011.0 |
| 20260506015518 | 71 | 244 | 3.0 | 6.0 | 0.00 | 0.00 | 0.00 | 58 | 1011.0 |
| 20260506015017 | 71 | 249 | 5.0 | 10.0 | 0.00 | 0.00 | 0.00 | 58 | 1010.9 |
| 20260506014517 | 71 | 230 | 2.0 | 5.0 | 0.00 | 0.00 | 0.00 | 59 | 1010.8 |
| 20260506014018 | 71 | 250 | 3.0 | 6.0 | 0.00 | 0.00 | 0.00 | 58 | 1010.8 |
| 20260506013518 | 71 | 225 | 4.0 | 6.0 | 0.00 | 0.00 | 0.00 | 58 | 1010.7 |
| 20260506013018 | 72 | 233 | 3.0 | 5.0 | 0.00 | 0.00 | 0.00 | 58 | 1010.8 |
| 20260506012517 | 72 | 227 | 6.0 | 10.0 | 0.00 | 0.00 | 0.00 | 57 | 1010.7 |
| 20260506012018 | 72 | 209 | 3.0 | 12.0 | 0.00 | 0.00 | 0.00 | 57 | 1010.7 |
| 20260506011517 | 72 | 241 | 2.0 | 4.0 | 0.00 | 0.00 | 0.00 | 57 | 1010.7 |
| 20260506011017 | 73 | 221 | 5.0 | 11.0 | 0.00 | 0.00 | 0.00 | 56 | 1010.6 |
| 20260506010518 | 73 | 212 | 2.0 | 4.0 | 0.00 | 0.00 | 0.00 | 55 | 1010.5 |
| 20260506010017 | 73 | 226 | 2.0 | 3.0 | 0.00 | 0.00 | 0.00 | 54 | 1010.5 |
| 20260506005517 | 74 | 219 | 2.0 | 5.0 | 0.00 | 0.00 | 0.00 | 53 | 1010.4 |
| 20260506005017 | 74 | 214 | 4.0 | 7.0 | 0.00 | 0.00 | 0.00 | 52 | 1010.4 |
| 20260506004518 | 74 | 223 | 3.0 | 4.0 | 0.00 | 0.00 | 0.00 | 50 | 1010.3 |
| 20260506004017 | 75 | 202 | 2.0 | 5.0 | 0.00 | 0.00 | 0.00 | 49 | 1010.2 |
| 20260506003518 | 75 | 212 | 4.0 | 6.0 | 0.00 | 0.00 | 0.00 | 49 | 1010.2 |
| 20260506003018 | 75 | 219 | 4.0 | 6.0 | 0.00 | 0.00 | 0.00 | 48 | 1010.2 |
| 20260506002517 | 76 | 210 | 4.0 | 7.0 | 0.00 | 0.00 | 0.00 | 47 | 1010.1 |
| 20260506002018 | 76 | 232 | 2.0 | 3.0 | 0.00 | 0.00 | 0.00 | 46 | 1010.0 |
| 20260506001517 | 77 | 220 | 5.0 | 8.0 | 0.00 | 0.00 | 0.00 | 45 | 1009.8 |
| 20260506001018 | 77 | 192 | 5.0 | 9.0 | 0.00 | 0.00 | 0.00 | 44 | 1009.8 |
| 20260506000517 | 77 | 209 | 2.0 | 5.0 | 0.00 | 0.00 | 0.00 | 44 | 1009.8 |
| 20260506000019 | 78 | 214 | 4.0 | 7.0 | 0.00 | 0.00 | 0.00 | 43 | 1009.7 |
| 20260505235518 | 78 | 223 | 4.0 | 8.0 | 0.00 | 0.00 | 0.00 | 42 | 1009.6 |
| 20260505235017 | 78 | 215 | 4.0 | 8.0 | 0.00 | 0.00 | 0.00 | 41 | 1009.7 |
| 20260505234517 | 79 | 196 | 2.0 | 4.0 | 0.00 | 0.00 | 0.00 | 41 | 1009.6 |
| 20260505234021 | 79 | 242 | 4.0 | 7.0 | 0.00 | 0.00 | 0.00 | 40 | 1009.6 |
| 20260505233517 | 79 | 245 | 6.0 | 10.0 | 0.00 | 0.00 | 0.00 | 40 | 1009.5 |
| 20260505233017 | 79 | 237 | 4.0 | 6.0 | 0.00 | 0.00 | 0.00 | 40 | 1009.5 |
| 20260505232517 | 79 | 224 | 4.0 | 8.0 | 0.00 | 0.00 | 0.00 | 40 | 1009.3 |
| 20260505232018 | 80 | 225 | 4.0 | 12.0 | 0.00 | 0.00 | 0.00 | 40 | 1009.3 |
| 20260505231517 | 80 | 221 | 5.0 | 8.0 | 0.00 | 0.00 | 0.00 | 40 | 1009.2 |
| 20260505231017 | 80 | 225 | 4.0 | 6.0 | 0.00 | 0.00 | 0.00 | 40 | 1009.3 |
| 20260505230517 | 80 | 218 | 4.0 | 8.0 | 0.00 | 0.00 | 0.00 | 40 | 1009.3 |
| 20260505230017 | 80 | 219 | 5.0 | 11.0 | 0.00 | 0.00 | 0.00 | 39 | 1009.2 |
| 20260505225517 | 80 | 236 | 4.0 | 8.0 | 0.00 | 0.00 | 0.00 | 39 | 1009.2 |
| 20260505225017 | 80 | 252 | 5.0 | 9.0 | 0.00 | 0.00 | 0.00 | 39 | 1009.2 |
| 20260505224517 | 80 | 249 | 6.0 | 10.0 | 0.00 | 0.00 | 0.00 | 39 | 1009.3 |
| 20260505224017 | 81 | 248 | 7.0 | 14.0 | 0.00 | 0.00 | 0.00 | 39 | 1009.1 |
| 20260505223517 | 81 | 235 | 9.0 | 16.0 | 0.00 | 0.00 | 0.00 | 39 | 1009.3 |
| 20260505223017 | 81 | 222 | 6.0 | 11.0 | 0.00 | 0.00 | 0.00 | 39 | 1009.1 |
| 20260505222517 | 82 | 232 | 4.0 | 10.0 | 0.00 | 0.00 | 0.00 | 39 | 1009.2 |
| 20260505222017 | 82 | 217 | 5.0 | 7.0 | 0.00 | 0.00 | 0.00 | 39 | 1009.1 |
| 20260505221517 | 82 | 245 | 6.0 | 12.0 | 0.00 | 0.00 | 0.00 | 38 | 1009.2 |
| 20260505221019 | 82 | 247 | 6.0 | 10.0 | 0.00 | 0.00 | 0.00 | 37 | 1009.0 |
| 20260505220517 | 82 | 240 | 4.0 | 10.0 | 0.00 | 0.00 | 0.00 | 36 | 1009.0 |
| 20260505220017 | 83 | 238 | 6.0 | 15.0 | 0.00 | 0.00 | 0.00 | 36 | 1009.0 |
| 20260505215517 | 83 | 244 | 4.0 | 7.0 | 0.00 | 0.00 | 0.00 | 35 | 1009.0 |
| 20260505215017 | 83 | 242 | 5.0 | 8.0 | 0.00 | 0.00 | 0.00 | 34 | 1009.0 |
| 20260505214517 | 83 | 242 | 7.0 | 13.0 | 0.00 | 0.00 | 0.00 | 33 | 1008.9 |
| 20260505214018 | 83 | 253 | 4.0 | 7.0 | 0.00 | 0.00 | 0.00 | 33 | 1009.0 |
| 20260505213517 | 83 | 244 | 6.0 | 11.0 | 0.00 | 0.00 | 0.00 | 33 | 1009.0 |
| 20260505213017 | 83 | 240 | 5.0 | 10.0 | 0.00 | 0.00 | 0.00 | 33 | 1008.9 |
| 20260505212518 | 83 | 228 | 2.0 | 6.0 | 0.00 | 0.00 | 0.00 | 33 | 1009.0 |
| 20260505212018 | 83 | 252 | 9.0 | 13.0 | 0.00 | 0.00 | 0.00 | 32 | 1008.8 |
| 20260505211517 | 83 | 256 | 7.0 | 14.0 | 0.00 | 0.00 | 0.00 | 32 | 1008.9 |
| 20260505211017 | 83 | 246 | 5.0 | 16.0 | 0.00 | 0.00 | 0.00 | 32 | 1008.8 |
| 20260505210518 | 84 | 251 | 7.0 | 12.0 | 0.00 | 0.00 | 0.00 | 31 | 1008.8 |
| 20260505210017 | 84 | 253 | 6.0 | 10.0 | 0.00 | 0.00 | 0.00 | 31 | 1008.7 |
| 20260505205032 | 84 | 240 | 6.0 | 11.0 | 0.00 | 0.00 | 0.00 | 30 | 1008.8 |
| 20260505204517 | 84 | 246 | 5.0 | 10.0 | 0.00 | 0.00 | 0.00 | 30 | 1008.7 |
| 20260505204018 | 84 | 229 | 9.0 | 14.0 | 0.00 | 0.00 | 0.00 | 30 | 1008.9 |
| 20260505203517 | 84 | 245 | 5.0 | 9.0 | 0.00 | 0.00 | 0.00 | 30 | 1008.8 |
| 20260505203017 | 84 | 245 | 6.0 | 11.0 | 0.00 | 0.00 | 0.00 | 29 | 1008.7 |
| 20260505202517 | 84 | 243 | 8.0 | 13.0 | 0.00 | 0.00 | 0.00 | 29 | 1008.7 |
| 20260505202017 | 84 | 245 | 8.0 | 13.0 | 0.00 | 0.00 | 0.00 | 29 | 1008.7 |
| 20260505201517 | 85 | 259 | 7.0 | 14.0 | 0.00 | 0.00 | 0.00 | 29 | 1008.7 |
| 20260505201018 | 85 | 252 | 5.0 | 10.0 | 0.00 | 0.00 | 0.00 | 30 | 1008.8 |
| 20260505200518 | 85 | 244 | 5.0 | 10.0 | 0.00 | 0.00 | 0.00 | 29 | 1008.8 |
| 20260505200020 | 85 | 236 | 8.0 | 18.0 | 0.00 | 0.00 | 0.00 | 30 | 1008.8 |
| 20260505195518 | 85 | 259 | 5.0 | 11.0 | 0.00 | 0.00 | 0.00 | 30 | 1008.8 |
| 20260505195018 | 85 | 235 | 4.0 | 8.0 | 0.00 | 0.00 | 0.00 | 30 | 1008.8 |
| 20260505194518 | 85 | 261 | 6.0 | 12.0 | 0.00 | 0.00 | 0.00 | 29 | 1008.8 |
| 20260505194018 | 85 | 274 | 5.0 | 9.0 | 0.00 | 0.00 | 0.00 | 31 | 1008.9 |
| 20260505193517 | 85 | 217 | 5.0 | 14.0 | 0.00 | 0.00 | 0.00 | 32 | 1008.9 |
| 20260505193017 | 85 | 223 | 4.0 | 8.0 | 0.00 | 0.00 | 0.00 | 32 | 1008.9 |
| 20260505192518 | 85 | 268 | 7.0 | 17.0 | 0.00 | 0.00 | 0.00 | 33 | 1009.0 |
| 20260505192017 | 84 | 238 | 6.0 | 10.0 | 0.00 | 0.00 | 0.00 | 34 | 1009.0 |
| 20260505191518 | 84 | 230 | 6.0 | 11.0 | 0.00 | 0.00 | 0.00 | 33 | 1009.2 |
| 20260505191018 | 84 | 205 | 6.0 | 13.0 | 0.00 | 0.00 | 0.00 | 34 | 1009.3 |
| 20260505190519 | 84 | 254 | 7.0 | 10.0 | 0.00 | 0.00 | 0.00 | 34 | 1009.3 |
| 20260505190018 | 84 | 235 | 3.0 | 6.0 | 0.00 | 0.00 | 0.00 | 36 | 1009.4 |
| 20260505185517 | 84 | 229 | 6.0 | 11.0 | 0.00 | 0.00 | 0.00 | 36 | 1009.4 |
| 20260505185018 | 84 | 239 | 5.0 | 8.0 | 0.00 | 0.00 | 0.00 | 36 | 1009.4 |
| 20260505184518 | 84 | 238 | 4.0 | 7.0 | 0.00 | 0.00 | 0.00 | 36 | 1009.7 |
| 20260505184017 | 84 | 249 | 5.0 | 8.0 | 0.00 | 0.00 | 0.00 | 37 | 1009.7 |
| 20260505183517 | 83 | 245 | 5.0 | 13.0 | 0.00 | 0.00 | 0.00 | 37 | 1009.8 |
| 20260505183018 | 84 | 230 | 6.0 | 13.0 | 0.00 | 0.00 | 0.00 | 36 | 1009.8 |